M0CJS Weather Reports


Display with metric or nautical units.
time (UTC)temp
F
wind
direction
speed
MPH
gust
MPH
rain 1hr
in
rain 24hr
in
rain mn
in
humidity
%
barometer
mb
20260905135016 68 293 5.0 9.0 0.00 0.00 0.00 62 1025.6
20260905134016 68 315 5.0 10.0 0.00 0.00 0.00 61 1025.7
20260905133016 68 293 8.0 13.0 0.00 0.00 0.00 61 1025.6
20260905132016 68 293 5.0 11.0 0.00 0.00 0.00 62 1025.6
20260905131016 69 293 4.0 8.0 0.00 0.00 0.00 59 1025.6
20260905130016 68 270 3.0 8.0 0.00 0.00 0.00 61 1025.6
20260905125016 69 293 5.0 9.0 0.00 0.00 0.00 61 1025.6
20260905124016 71 293 5.0 13.0 0.00 0.00 0.00 56 1025.4
20260905123016 70 270 5.0 10.0 0.00 0.00 0.00 57 1025.4
20260905122016 69 293 6.0 11.0 0.00 0.00 0.00 59 1025.4
20260905121016 67 270 5.0 10.0 0.00 0.00 0.00 63 1025.4
20260905120016 66 293 4.0 7.0 0.00 0.00 0.00 64 1025.4
20260905115016 68 293 5.0 9.0 0.00 0.00 0.00 62 1025.3
20260905114016 70 293 6.0 11.0 0.00 0.00 0.00 60 1025.2
20260905113016 69 0 6.0 11.0 0.00 0.00 0.00 63 1025.2
20260905112016 66 315 6.0 10.0 0.00 0.00 0.00 66 1025.3
20260905111036 69 0 6.0 13.0 0.00 0.00 0.00 60 1025.4
20260905110016 69 293 4.0 8.0 0.00 0.00 0.00 63 1025.4
20260905105036 68 315 5.0 13.0 0.00 0.00 0.00 62 1025.2
20260905104016 69 293 5.0 11.0 0.00 0.00 0.00 61 1025.2
20260905103016 66 293 5.0 9.0 0.00 0.00 0.00 66 1025.2
20260905102015 66 0 7.0 14.0 0.00 0.00 0.00 64 1025.3
20260905101016 68 293 6.0 12.0 0.00 0.00 0.00 63 1025.2
20260905100015 68 293 6.0 12.0 0.00 0.00 0.00 65 1025.1
20260905095015 66 293 6.0 11.0 0.00 0.00 0.00 67 1025.0
20260905094015 66 0 7.0 13.0 0.00 0.00 0.00 67 1024.8
20260905093015 66 293 7.0 13.0 0.00 0.00 0.00 68 1024.7
20260905092015 65 0 8.0 14.0 0.00 0.00 0.00 68 1024.7
20260905091015 65 0 9.0 13.0 0.00 0.00 0.00 69 1024.4
20260905090015 64 293 8.0 13.0 0.00 0.00 0.00 70 1024.3
20260905085135 64 293 7.0 14.0 0.00 0.00 0.00 71 1024.3
20260905084016 64 293 6.0 12.0 0.00 0.00 0.00 74 1024.1
20260905083016 63 293 9.0 17.0 0.00 0.00 0.00 73 1024.0
20260905082016 62 293 8.0 14.0 0.00 0.00 0.00 74 1023.9
20260905081015 62 293 7.0 12.0 0.00 0.00 0.00 76 1023.9
20260905080015 62 293 5.0 10.0 0.00 0.00 0.00 78 1023.5
20260905075015 61 293 7.0 12.0 0.00 0.00 0.00 78 1023.4
20260905074015 60 270 5.0 10.0 0.00 0.00 0.00 80 1023.4
20260905073035 60 270 5.0 10.0 0.00 0.00 0.00 81 1023.3
20260905072015 59 270 4.0 10.0 0.00 0.00 0.00 82 1023.2
20260905071015 58 270 4.0 10.0 0.00 0.00 0.00 83 1023.1
20260905070015 58 270 4.0 8.0 0.00 0.06 0.00 84 1022.9
20260905065015 57 270 2.0 6.0 0.00 0.06 0.00 86 1022.8
20260905064015 56 270 3.0 6.0 0.00 0.06 0.00 88 1022.7
20260905063015 55 270 2.0 4.0 0.00 0.06 0.00 89 1022.6
20260905062015 54 248 2.0 4.0 0.00 0.06 0.00 91 1022.6
20260905061017 53 225 3.0 9.0 0.00 0.06 0.00 92 1022.6
20260905060017 53 203 5.0 8.0 0.00 0.24 0.00 93 1022.4
20260905055037 53 203 5.0 7.0 0.00 0.24 0.00 92 1022.3
20260905054017 52 203 4.0 6.0 0.00 0.24 0.00 93 1022.2
20260905053017 53 203 4.0 6.0 0.00 0.24 0.00 92 1022.1
20260905052037 53 203 4.0 7.0 0.00 0.24 0.00 93 1022.2
20260905051037 53 225 4.0 6.0 0.00 0.24 0.00 93 1022.0
20260905050017 53 203 4.0 8.0 0.00 0.74 0.00 92 1021.9
20260905045017 53 225 2.0 4.0 0.00 0.74 0.00 93 1021.9
20260905044017 53 203 4.0 8.0 0.00 0.74 0.00 93 1021.6
20260905043017 53 225 2.0 8.0 0.00 0.74 0.00 93 1021.6
20260905042017 53 225 4.0 8.0 0.00 0.74 0.00 92 1021.5
20260905041017 54 225 3.0 6.0 0.00 0.74 0.00 92 1021.4
20260905040017 54 225 3.0 7.0 0.00 0.80 0.00 92 1021.2
20260905035017 54 203 2.0 5.0 0.00 0.80 0.00 92 1021.0
20260905034017 54 248 2.0 7.0 0.00 0.80 0.00 91 1020.9
20260905033037 54 270 2.0 6.0 0.00 0.80 0.00 92 1020.7
20260905032017 54 248 2.0 4.0 0.00 0.80 0.00 92 1020.8
20260905031017 54 248 2.0 6.0 0.00 0.80 0.00 92 1020.6
20260905030017 54 248 2.0 4.0 0.00 0.80 0.00 92 1020.7
20260905025017 55 248 2.0 5.0 0.00 0.80 0.00 92 1020.5
20260905024017 55 248 2.0 5.0 0.00 0.80 0.00 92 1020.5
20260905023017 55 248 1.0 4.0 0.00 0.80 0.00 92 1020.4
20260905022017 55 248 2.0 5.0 0.00 0.80 0.00 92 1020.5
20260905021016 55 248 2.0 6.0 0.00 0.80 0.00 91 1020.4
20260905020057 55 225 3.0 11.0 0.00 0.80 0.00 91 1020.3
20260905015036 55 248 2.0 7.0 0.00 0.80 0.00 91 1020.1
20260905014016 55 248 3.0 6.0 0.00 0.80 0.00 90 1020.0
20260905013016 55 248 3.0 9.0 0.00 0.80 0.00 90 1020.1
20260905012017 55 225 4.0 8.0 0.00 0.80 0.00 90 1020.0
20260905011016 55 225 4.0 10.0 0.00 0.80 0.00 90 1020.0
20260905010017 55 225 3.0 7.0 0.00 0.80 0.00 90 1019.9
20260905005036 55 225 4.0 8.0 0.00 0.80 0.00 90 1019.9
20260905004016 55 248 4.0 10.0 0.00 0.80 0.00 89 1019.8
20260905003036 55 225 4.0 8.0 0.00 0.80 0.00 89 1019.8
20260905002016 55 203 4.0 8.0 0.00 0.80 0.00 89 1019.9
20260905001016 56 225 5.0 12.0 0.00 0.80 0.00 89 1019.8
20260905000036 56 203 5.0 13.0 0.00 0.80 0.00 88 1019.8
20260904235016 56 225 4.0 10.0 0.00 0.80 0.00 88 1019.5
20260904234016 56 225 6.0 11.0 0.00 0.80 0.00 88 1019.5
20260904233016 56 225 3.0 7.0 0.00 0.80 0.00 88 1019.5
20260904232016 57 225 3.0 9.0 0.00 0.80 0.00 87 1019.5
20260904231016 57 248 3.0 8.0 0.00 0.80 0.00 87 1019.2
20260904230016 57 248 3.0 7.0 0.00 0.80 0.80 86 1019.2
20260904225036 57 248 2.0 7.0 0.00 0.80 0.80 86 1019.3
20260904224017 57 270 3.0 7.0 0.00 0.80 0.80 85 1019.1
20260904223016 58 270 3.0 8.0 0.00 0.80 0.80 85 1019.1
20260904222016 58 248 3.0 6.0 0.00 0.80 0.80 85 1019.1
20260904221016 58 248 3.0 6.0 0.00 0.80 0.80 85 1019.0
20260904220016 58 248 4.0 9.0 0.00 0.80 0.80 84 1018.9
20260904215016 58 248 3.0 7.0 0.00 0.80 0.80 84 1019.0
20260904214016 58 248 3.0 7.0 0.00 0.80 0.80 84 1018.9
20260904213016 59 270 3.0 6.0 0.00 0.80 0.80 83 1018.9
20260904212016 59 248 3.0 9.0 0.00 0.80 0.80 82 1018.8
20260904211016 59 248 3.0 7.0 0.00 0.80 0.80 82 1018.8
20260904210016 59 248 3.0 9.0 0.00 0.80 0.80 83 1018.7
20260904205016 59 248 3.0 8.0 0.00 0.80 0.80 83 1018.6
20260904204016 59 248 3.0 7.0 0.00 0.80 0.80 83 1018.5
20260904203036 58 248 3.0 8.0 0.00 0.80 0.80 83 1018.5
20260904202016 59 225 3.0 6.0 0.00 0.80 0.80 82 1018.4
20260904201016 59 225 2.0 6.0 0.00 0.80 0.80 82 1018.3
20260904200036 59 248 3.0 5.0 0.00 0.80 0.80 81 1018.4
20260904195016 59 248 3.0 5.0 0.00 0.80 0.80 81 1018.3
20260904194016 59 248 3.0 6.0 0.00 0.80 0.80 80 1018.2
20260904193016 60 248 2.0 4.0 0.00 0.80 0.80 80 1018.1
20260904192016 60 248 2.0 5.0 0.00 0.80 0.80 79 1018.1
20260904191016 60 270 3.0 8.0 0.00 0.80 0.80 78 1017.8
20260904190016 61 270 3.0 8.0 0.00 0.80 0.80 76 1017.6
20260904185016 61 270 4.0 9.0 0.00 0.80 0.80 76 1017.6
20260904184016 62 270 6.0 14.0 0.00 0.80 0.80 74 1017.4
20260904183016 62 270 6.0 13.0 0.00 0.80 0.80 74 1017.3
20260904182016 62 270 5.0 10.0 0.00 0.80 0.80 73 1017.1
20260904181016 63 248 5.0 11.0 0.00 0.80 0.80 72 1017.0
20260904180056 63 270 4.0 13.0 0.00 0.80 0.80 72 1016.9
20260904175016 63 270 5.0 10.0 0.00 0.80 0.80 72 1016.8
20260904174016 63 270 6.0 14.0 0.00 0.80 0.80 71 1016.6
20260904173056 64 270 6.0 14.0 0.00 0.80 0.80 71 1016.5
20260904172016 64 270 6.0 14.0 0.00 0.80 0.80 70 1016.3
20260904171016 64 270 6.0 12.0 0.00 0.80 0.80 71 1016.1
20260904170036 64 270 6.0 12.0 0.00 0.80 0.80 70 1016.0
20260904165016 64 270 8.0 16.0 0.00 0.80 0.80 70 1015.8
20260904164016 64 270 7.0 15.0 0.00 0.80 0.80 70 1015.7
20260904163016 64 270 6.0 12.0 0.00 0.80 0.80 71 1015.6
20260904162036 64 248 7.0 15.0 0.00 0.80 0.80 70 1015.7
20260904161016 64 270 11.0 18.0 0.00 0.80 0.80 69 1015.8
20260904160015 65 270 8.0 19.0 0.00 0.80 0.80 69 1015.6
20260904155036 65 270 9.0 18.0 0.00 0.80 0.80 69 1015.6
20260904154016 65 270 10.0 18.0 0.00 0.80 0.80 68 1015.6
20260904153016 65 270 7.0 15.0 0.00 0.80 0.80 69 1015.5
20260904152015 65 270 8.0 14.0 0.00 0.80 0.80 67 1015.7
20260904151015 66 270 8.0 17.0 0.00 0.80 0.80 68 1015.5
20260904150016 66 270 5.0 12.0 0.00 0.80 0.80 69 1015.4
20260904145016 66 270 7.0 15.0 0.00 0.80 0.80 68 1015.1
20260904144035 66 270 8.0 15.0 0.00 0.80 0.80 67 1015.0
20260904143015 66 293 11.0 18.0 0.00 0.80 0.80 67 1014.9
20260904142016 67 270 7.0 16.0 0.00 0.80 0.80 68 1015.0
20260904141016 67 270 8.0 17.0 0.00 0.80 0.80 68 1015.0
20260904140015 66 270 11.0 20.0 0.00 0.80 0.80 66 1014.8